Погода в Касселе

Германия     51°19′06″N   9°30′38″E
темп.,
°C
ветер,
м/с
пор.,
м/с
влажн.,
%
обл.,
%
осадки,
мм/ч
давл.,
гПа
погр.,
м
2 августа, пн
пн223:00+13зюз1294100 0.5 101137
02:00+12з129648 0.6 1012105
05:00+13зюз1296100 0.1 1012123
08:00+13з358659 0.1 1013578
11:00+15з3480100 1.1 1013616
14:00+16зсз24725 2.5 1014652
17:00+18ссз3456100 0.0 10131001
20:00+16ссз2566100 0.0 1013205
3 августа, вт
вт323:00+15зсз1171100 0.0 101511
02:00+13зюз00767 0.0 101510
05:00+10ю118949 0.0 101510
08:00+13ююв1178100 0.0 1014161
11:00+18ю2364100 0.0 1013914
14:00+19ююз2372100 2.8 1012959
17:00+18ююз348083 3.8 1011678
20:00+16ююз24905 7.0 1011128
4 августа, ср
ср423:00+12ю22955 1.1 101229
02:00+11ю22965 1.1 101330
05:00+11ю229895 0.0 101239
08:00+13ююз349682 0.0 1013337
11:00+16ююз3484100 0.3 1013667
14:00+18ююз456932 1.0 10121045
17:00+19з236496 0.9 10121066
20:00+17юз238198 1.6 101271
5 августа, чт
чт523:00+13ю2290100 0.1 101318
02:00+12ю229225 0.1 101211
05:00+11ююз119469 0.0 101210
08:00+13ю1189100 0.0 101188
11:00+18юз2269100 0.0 1011750
14:00+21зюз336050 0.8 10091362
17:00+20зюз347020 3.3 10081049
20:00+17зсз2585100 6.5 1008105
6 августа, пт
пт623:00+13ююз22905 0.0 100921
02:00+12ю339380 0.0 100849
05:00+13ююв25948 0.0 1007138
08:00+15ю4108885 0.1 1006604
11:00+17юз698399 0.1 1006882
14:00+20юз6867100 0.3 10051246
17:00+21зюз795818 0.8 10051649
20:00+18юз597399 1.0 1007553